Regional Weather Roundup
Issued by NWS Albany, NY

Home | Current Version | Previous Version | Text Only | Print | Product List | Glossary On
Versions: 1 2 3 4 5 6 7 8 9 10 11 12 13 14 15 16 17 18 19 20 21 22 23 24 25 26 27
000
ASUS41 KALY 092310
RWRALY

NEW YORK STATE HOURLY WEATHER ROUNDUP
NATIONAL WEATHER SERVICE ALBANY NY
600 PM EST SAT DEC 09 2017

NOTE: "FAIR" INDICATES FEW OR NO CLOUDS BELOW 12,000 FEET WITH NO
SIGNIFICANT WEATHER AND/OR NO OBSTRUCTIONS TO VISIBILITY.

NYZ032-033-038>043-046>054-057>066-NYZ062>081-082-084-100000-
EAST


CITY           SKY/WX    TMP DP  RH WIND       PRES   REMARKS
ALBANY         LGT SNOW  28  25  88 N6        29.80F VSB 3/4 WCI  22
GLENS FALLS    LGT SNOW  27  25  92 CALM      29.80F FOG
POUGHKEEPSIE   LGT SNOW  29  26  89 N3        29.75F FOG
NEWBURGH       LGT SNOW  28  28 100 CALM      29.74F
MONTGOMERY     LGT SNOW  28  26  92 N6        29.74F FOG     WCI  22
WHITE PLAINS   LGT SNOW  30  28  92 N9        29.70F VSB 1   WCI  22
ISLIP          LGT SNOW  33  32  96 N12       29.68F FOG     WCI  24
NEW YORK CITY  LGT SNOW  33  30  88 N12       29.72F FOG     WCI  24
CENTRAL PARK   LGT SNOW  31  30  96 N6        29.74F FOG     WCI  25
$$

NYZ005>009-017-018-044>046-055-056-100000-
CENTRAL


CITY           SKY/WX    TMP DP  RH WIND       PRES   REMARKS
FULTON         PTCLDY    29  20  69 CALM      29.77R
SYRACUSE       CLOUDY    29  20  69 CALM      29.76S
ROME           PTCLDY    29  18  63 SE6       29.77F WCI  23
ELMIRA         PTCLDY    27  18  69 CALM      29.74R
BINGHAMTON     CLOUDY    25  16  68 CALM      29.68F
$$

NYZ026>034-041>043-087-100000-
NORTH


CITY           SKY/WX    TMP DP  RH WIND       PRES   REMARKS
WATERTOWN      PTCLDY    27  19  72 E5        29.76F WCI  22
FORT DRUM      NOT AVBL
OGDENSBURG     CLOUDY    31  26  84 CALM      29.79S
MASSENA        PTCLDY    28  25  88 E3        29.81F
SARANAC LAKE   PTCLDY    23  20  88 NE3       29.70F
PLATTSBURGH    CLOUDY    31  20  63 NW5       29.80F WCI  26
$$

NYZ001>004-010>016-019>021-085-100000-
WEST


CITY           SKY/WX    TMP DP  RH WIND       PRES   REMARKS
NIAGARA FALLS  CLOUDY    33  17  51 CALM      29.76S
BUFFALO        MOCLDY    31  16  54 NW3       29.76R
DUNKIRK        CLOUDY    25  16  68 SW3       29.76S
JAMESTOWN      CLOUDY    28  10  46 W7        29.72R WCI  21
WELLSVILLE     MOCLDY    28   8  43 SW5       29.69R WCI  23
ROCHESTER      MOCLDY    30  15  53 CALM      29.76R
PENN YAN       PTCLDY    23  14  68 S5        29.73R WCI  17
$$

             KEY
       WCI = WIND CHILL INDEX
       VSB = VISIBILITY
       HX  = HEAT INDEX
$$




USA.gov is the U.S. government's official web portal to all federal, state and local government web resources and services.